Погода в Утулике

Россия / Иркутская область     51°32′39″N   104°03′24″E
темп.,
°C
ветер,
м/с
пор.,
м/с
влажн.,
%
обл.,
%
осадки,
мм/ч
давл.,
гПа
погр.,
м
9 мая, вс
вс923:00+2юз449078 0.0 101547
02:00+2юз448958 0.1 101469
05:00+2юз338585 0.0 101432
08:00+5юв11705 0.0 1012295
11:00+9с135493 0.0 10091218
14:00+11в044882 0.1 10081623
17:00+9с235985 0.3 1008544
20:00+4св1298100 1.4 1012213
10 мая, пн
пн1023:00+3с2398100 0.4 1013247
02:00+2в0198100 1.1 101399
05:00+1с1299100 1.6 1014119
08:00+1ссв1399100 5.8 1016171
11:00+1ссв1290100 1.3 1016461
14:00+3ссв1382100 1.9 1016595
17:00+4с2479100 0.3 1015600
20:00+2ссз2393100 1.4 1018186
11 мая, вт
вт1123:00+1зюз348895 0.4 1019102
02:000з3496100 2.0 1019185
05:00+1з2395100 2.1 1019113
08:00+1зсз2394100 2.8 1019187
11:00+3ссз1294100 1.1 1019156
14:00+4ююз018754 1.8 1019430
17:00+7зсз127326 0.3 1016711
20:00+5юз22848 0.4 101718
12 мая, ср
ср1223:00+1юз55840 0.0 101948
02:00+1юз54833 0.0 101844
05:000юз44833 0.0 101736
08:00+5зюз117460 0.0 1013148
11:00+7ссв126978 0.3 1012395
14:00+8св126370 0.8 1011710
17:00+8ссв135775 0.2 1010874
20:00+6сз2381100 0.6 101349
13 мая, чт
чт1323:00+4зсз2394100 3.1 1016375
02:00+3з2395100 6.8 1018134
05:00+1з2287100 0.6 1020172
08:00+2зсз247892 1.0 1021665
11:00+3ссз256196 0.3 10211069
14:00+6сз2549100 0.4 10201488
17:00+7с244089 0.1 10181619
20:00+4ююв115211 0.1 101910